Flag for United Kingdom Weather past 2 weeks in Bangor, Wales, United Kingdom

Now
50 °F

Cool.


Feels Like: 43 °F
Forecast: 45 / 56 °F
Wind: 21 mph from West

Location: Capel Curig

Current Time: May 28, 2015 at 3:25:41 PM

Latest Report: May 28, 2015 at 2:00 PM


Visibility: 28 mi

Pressure: 29.96 "Hg

Humidity: 60%

Dew point: 37 °F

Location of BangorLocation

Historic Weather in Bangor — Graph

°F

Bangor temperature yesterday

Maximum temperature yesterday: 53 °F (at 10:00 AM)
Minimum temperature yesterday: 43 °F (at 2:00 AM)
Average temperature yesterday: 48 °F

Past Weeks' High & Low Weather Summary

 TemperatureHumidityPressure
High57 °F (May 25, 6:00 PM)99% (May 27, 9:00 PM)30.37 "Hg (May 27, 9:00 PM)
Low35 °F (May 15, 6:00 AM)50% (May 16, 4:00 PM)29.56 "Hg (May 18, 5:00 PM)
Average48 °F77%30.07 "Hg
* Reported May 13 2:00 PM — May 28 2:00 PM, Bangor, Weather by CustomWeather, © 2015

Note: Actual official high and low records may vary slightly from our data, if they occured in-between our weather recording intervals... More about our weather records

Advertising

Bangor weather history for previous 24 hours

 ConditionsComfort  
Time TempWeatherWind HumidityBarometerVisibility
2:00 PM
Thu, May 28
50 °FCool.21 mph60%29.96 "Hg28 mi
1:00 PM50 °FCool.22 mph63%29.96 "Hg28 mi
12:00 PM49 °FCool.22 mph65%29.96 "Hg22 mi
11:00 AM47 °FCool.23 mph70%29.96 "Hg19 mi
10:00 AM46 °FCool.24 mph70%29.97 "Hg16 mi
9:00 AM46 °FCool.22 mph76%29.97 "Hg13 mi
8:00 AM46 °FCool.21 mph81%29.95 "Hg19 mi
7:00 AM45 °FCool.22 mph78%29.94 "Hg19 mi
6:00 AM45 °FRain showers. Cloudy.18 mph81%29.94 "Hg28 mi
3:00 AM46 °FRain showers. Overcast.29 mph84%29.92 "Hg19 mi
2:00 AM48 °FCool.29 mph75%29.92 "Hg25 mi
1:00 AM50 °FCool.30 mph77%29.92 "Hg28 mi
12:00 AM51 °FCool.30 mph75%29.92 "Hg28 mi
11:00 PM
Wed, May 27
51 °FCool.23 mph80%29.92 "Hg18 mi
9:00 PM49 °FFog.29 mph99%29.94 "Hg3 mi
8:00 PM48 °FCool.28 mph97%29.96 "Hg2 mi
7:00 PM46 °FCool.29 mph94%29.98 "Hg3 mi
6:00 PM45 °FQuite cool.39 mph89%30.02 "Hg2 mi
5:00 PM49 °FLight rain. Cloudy.37 mph89%30.01 "Hg6 mi
4:00 PM50 °FLight rain. Cloudy.33 mph90%30.05 "Hg6 mi
3:00 PM52 °FLight freezing rain. Cloudy.28 mph90%30.08 "Hg7 mi
Weather by CustomWeather, © 2015

See weather overviewHow to use our weather pages